Regional Weather Roundup
Issued by NWS Green Bay, WI

Home | Current Version | Previous Version | Graphics & Text | Print | Product List | Glossary Off
Versions: 1 2 3 4 5 6 7 8 9 10 11 12 13 14 15 16 17 18 19 20 21 22 23 24 25 26 27 28 29 30 31 32 33 34 35 36 37 38 39 40 41 42 43 44 45 46 47 48 49 50

000
ASUS43 KGRB 230211
RWRGRB

NORTH-CENTRAL AND NORTHEAST WISCONSIN REGIONAL WEATHER ROUNDUP
NATIONAL WEATHER SERVICE GREEN BAY WI
900 PM CDT MON MAY 22 2017

WIZ005-009-010>012-018-019-230300-
NORTH CENTRAL WISCONSIN

CITY           SKY/WX    TMP DP  RH WIND       PRES   REMARKS
IRONWOOD       CLOUDY    51  44  77 S3        29.84R
MANITOWISH WTR CLOUDY    49  46  92 CALM      29.84S
ARBOR VITAE    CLOUDY    52  45  77 CALM      29.84R
EAGLE RIVER    CLOUDY    49  43  78 CALM      29.84R
LAND O LAKES   CLOUDY    50  43  79 CALM      29.86R
RHINELANDER    CLOUDY    53  41  63 CALM      29.85R
PHILLIPS       CLOUDY    50  46  83 CALM      29.83S
ANTIGO         PTCLDY    52  42  70 N6        29.85R
TOMAHAWK       PTCLDY    48  42  81 CALM      29.85R
MERRILL        PTCLDY    53  41  65 CALM      29.84R
$$

WIZ013-073-230300-
NORTHEAST WISCONSIN

CITY           SKY/WX    TMP DP  RH WIND       PRES   REMARKS
IRON MOUNTAIN  CLEAR     48  40  73 N5        29.83R
MARINETTE      CLOUDY    50  48  93 CALM      29.85R
OCONTO         MOCLDY    52  47  81 E5        29.84R
$$

WIZ017-030-035>037-045-230300-
CENTRAL WISCONSIN

CITY           SKY/WX    TMP DP  RH WIND       PRES   REMARKS
MEDFORD        PTCLDY    51  42  70 N5        29.83R
WAUSAU         CLEAR     56  42  59 NE3       29.82R
MOSINEE        PTCLDY    54  45  71 N8        29.84R
MARSHFIELD     CLEAR     56  43  61 N5        29.81S
WISC RAPIDS    PTCLDY    56  45  66 N6        29.83R
STEVENS POINT  PTCLDY    55  44  66 CALM      29.83S
WAUPACA        MOCLDY    60  51  71 CALM      29.82R
SHAWANO        CLOUDY    60  45  57 CALM      29.84R
CLINTONVILLE   PTCLDY    61  43  51 CALM      29.83R
WAUTOMA        CLEAR     61  50  67 S6        29.82R
$$

WIZ038-039-048-051-230300-
FOX VALLEY

CITY           SKY/WX    TMP DP  RH WIND       PRES   REMARKS
NWS GREEN BAY  CLOUDY    61  53  75 SW5       29.83R
APPLETON       PTCLDY    59  46  63 SW9       29.81R
OSHKOSH        CLEAR     56  50  80 S3        29.82S
FOND DU LAC    CLOUDY    59  50  72 S7        29.83S
$$

WIZ022-050-052-230300-
EAST CENTRAL WISCONSIN

CITY           SKY/WX    TMP DP  RH WIND       PRES   REMARKS
EPHRAIM        MOCLDY    51  48  88 CALM      29.83S
WASHINGTON ISL CLOUDY    46  46  99 CALM      29.83R FOG
STURGEON BAY   PTCLDY    51  47  86 CALM      29.86R
MANITOWOC      CLOUDY    61  49  64 S5        29.84R
SHEBOYGAN      MOCLDY    58  52  80 S8        29.84S
$$

LMZ563-521-522-541>543-230300-
LAKESHORE

STATION/POSITION TIME  TEMP    WIND        PRES    VSBY  WAVE
                       AIR SEA DIR/SP/G                  HT/PER
                 (UTC) (F)     (DEG/KT/KT) (MB)    (MI)  (FT/S)
SHEBOYGAN LKSHOR 0200   56     200/ 11/ 12 1010.4F
KEWAUNEE LKSHORE 0148   63     210/  5/  6 1009.4R
NORTHPORT PIER   0140   50        CALM     1010.2S
N MID LAKE BUOY  0150   42 39  200/  4/  6 1011.5R         3/ 6
CHAMBERS ISLAND  0140   50     100/  2/  3 1010.2R
MENOMINEE LKSHOR 0148           50/  4/  4 1009.7R
$$



USA.gov is the U.S. government's official web portal to all federal, state and local government web resources and services.